TimeCST,TemperatureF,Dew PointF,Humidity,Sea Level PressureIn,VisibilityMPH,Wind Direction,Wind SpeedMPH,Gust SpeedMPH,PrecipitationIn,Events,Conditions,WindDirDegrees,DateUTC
12:53 AM,63.0,57.9,84,29.96,10.0,South,11.5,20.7,N/A,,Overcast,190,2013-01-29 06:53:00
1:53 AM,63.0,57.9,84,29.93,10.0,South,12.7,-,N/A,,Overcast,180,2013-01-29 07:53:00
2:53 AM,63.0,57.9,84,29.92,10.0,South,12.7,-,N/A,,Overcast,180,2013-01-29 08:53:00
3:53 AM,63.0,57.9,84,29.93,10.0,South,9.2,19.6,N/A,,Overcast,190,2013-01-29 09:53:00
4:53 AM,63.0,57.9,84,29.91,10.0,South,11.5,-,N/A,,Overcast,180,2013-01-29 10:53:00
5:53 AM,63.0,57.9,84,29.89,9.0,South,10.4,-,N/A,,Overcast,180,2013-01-29 11:53:00
6:03 AM,62.6,59.0,88,29.90,9.0,South,10.4,-,N/A,,Overcast,190,2013-01-29 12:03:00
6:36 AM,62.6,59.0,88,29.90,9.0,South,12.7,-,N/A,,Overcast,180,2013-01-29 12:36:00
6:53 AM,63.0,57.9,84,29.89,9.0,South,11.5,-,N/A,,Mostly Cloudy,180,2013-01-29 12:53:00
7:13 AM,62.6,57.2,82,29.89,8.0,South,13.8,-,N/A,,Mostly Cloudy,180,2013-01-29 13:13:00
7:53 AM,63.0,59.0,87,29.87,8.0,South,12.7,19.6,N/A,,Overcast,180,2013-01-29 13:53:00
8:53 AM,64.0,59.0,84,29.85,10.0,South,13.8,-,N/A,,Overcast,180,2013-01-29 14:53:00
9:08 AM,64.4,59.0,83,29.86,10.0,South,15.0,24.2,N/A,,Overcast,190,2013-01-29 15:08:00
9:18 AM,64.4,59.0,83,29.85,10.0,South,13.8,23.0,N/A,,Overcast,190,2013-01-29 15:18:00
9:53 AM,66.0,59.0,78,29.84,10.0,South,17.3,25.3,N/A,,Overcast,190,2013-01-29 15:53:00
10:03 AM,66.2,59.0,78,29.84,10.0,South,17.3,25.3,N/A,,Overcast,180,2013-01-29 16:03:00
10:53 AM,66.9,60.1,79,29.81,10.0,South,17.3,27.6,0.03,,Overcast,190,2013-01-29 16:53:00
11:48 AM,69.8,60.8,73,29.77,10.0,SSW,16.1,23.0,N/A,,Overcast,200,2013-01-29 17:48:00
11:53 AM,69.1,60.1,73,29.76,10.0,South,17.3,-,N/A,,Overcast,190,2013-01-29 17:53:00
12:26 PM,69.8,60.8,73,29.73,10.0,South,20.7,33.4,N/A,,Mostly Cloudy,180,2013-01-29 18:26:00
12:53 PM,70.0,59.0,68,29.70,10.0,South,20.7,36.8,N/A,,Mostly Cloudy,190,2013-01-29 18:53:00
1:31 PM,73.4,60.8,65,29.67,10.0,South,24.2,31.1,N/A,,Mostly Cloudy,180,2013-01-29 19:31:00
1:53 PM,72.0,59.0,64,29.65,10.0,South,23.0,35.7,N/A,,Mostly Cloudy,180,2013-01-29 19:53:00
2:53 PM,72.0,57.9,61,29.63,10.0,South,24.2,39.1,N/A,,Overcast,190,2013-01-29 20:53:00
3:53 PM,70.0,59.0,68,29.61,10.0,South,24.2,33.4,0.00,Rain,Light Rain,170,2013-01-29 21:53:00
4:53 PM,69.1,60.1,73,29.57,9.0,South,21.9,39.1,0.01,Rain,Light Rain,170,2013-01-29 22:53:00
5:53 PM,68.0,60.1,76,29.54,10.0,South,24.2,36.8,0.00,,Overcast,170,2013-01-29 23:53:00
6:53 PM,69.1,60.1,73,29.49,10.0,South,21.9,32.2,0.00,,Overcast,170,2013-01-30 00:53:00
7:53 PM,70.0,59.0,68,29.44,10.0,SSE,21.9,28.8,N/A,,Overcast,160,2013-01-30 01:53:00
8:31 PM,69.8,59.0,68,29.39,10.0,SSE,24.2,34.5,0.00,Thunderstorm,Thunderstorm,160,2013-01-30 02:31:00
8:49 PM,60.8,55.4,82,29.50,2.5,NW,23.0,38.0,0.00,Rain-Thunderstorm,Light Thunderstorms and Rain,310,2013-01-30 02:49:00
8:53 PM,57.0,54.0,89,29.50,0.8,NW,24.2,38.0,0.12,Rain-Thunderstorm,Heavy Thunderstorms and Rain,320,2013-01-30 02:53:00
8:59 PM,57.2,53.6,88,29.51,0.8,NW,24.2,36.8,0.33,Rain-Thunderstorm,Heavy Thunderstorms and Rain,320,2013-01-30 02:59:00
9:06 PM,57.2,53.6,88,29.51,2.0,NNW,18.4,36.8,0.44,Rain-Thunderstorm,Heavy Thunderstorms and Rain,330,2013-01-30 03:06:00
9:16 PM,57.2,53.6,88,29.52,3.0,NNW,18.4,28.8,0.55,Rain-Thunderstorm,Rain,330,2013-01-30 03:16:00
9:53 PM,55.9,52.0,87,29.51,6.0,North,11.5,-,0.70,Rain,Rain,350,2013-01-30 03:53:00
10:53 PM,55.9,52.0,87,29.54,8.0,Calm,Calm,-,0.09,Rain,Light Rain,0,2013-01-30 04:53:00
11:53 PM,55.0,52.0,89,29.52,10.0,SE,3.5,-,0.08,Rain,Light Rain,130,2013-01-30 05:53:00